Torna al catalogo

STARLINK-33761

AttivoComunicazioniVLEO
NORAD 63455·PAYLOAD·🇺🇸 United States

Lanciato Apr 4, 2025 da Vandenberg Space Force Base

Loading…

Prossimi Passaggi (prossime 24 ore)

TLE

AggiornatoSource: CelesTrak SupGP

Epoca: Sep 15, 2026, 03:25 UTC

1 63455C 25069Y   26258.14284722  .00061760  00000+0  18238-2 0  2589
2 63455  53.1589 334.6967 0001127  84.5309 152.2924 15.34375420    14

Traccia STARLINK-33761 in tempo reale con AllMySat

Download on the App Store